Showing default

KUIPER-00519, 68890

Orbit data source: Space-Track

KUIPER-00519, 68890 is a payload satellite owned by Kuiper Systems (US) in LEO that was launched on Tue, 28 Apr 2026 UTC via an ATLAS V 551 launch vehicle from the Air Force Eastern Test Range (AFETR). Payload-class satellites include a variety of spacecraft equipped with specific instruments for various scientific and technological missions. These include communications satellites like Starlink; space stations such as the ISS; scientific satellites like the Hubble; Earth observation satellites from companies like Planet Labs, Umbra, and HawkEye 360; GPS; miniature CubeSats for education and research; and military/defense satellites.

Loading next visibility...
Identifier
68890, 2026-095AC
Orbit
LEO
Country
Flag of USUS
Related business
Manufacturer
Kuiper Systems
Mission
Operational spacecraft
Bus & Motor
KUIPER, Unknown motor
Mass
~490 kg wet, ~490 kg dry
Launch date (UTC)
2026-04-28 (2 months ago)
Launch vehicle
ATLAS V 551
Launch site
Air Force Eastern Test Range (AFETR)
Object type
Payload
Rocket body
Debris
Shape & HBR
Unknown shape, 3.4 m
Radar Cross Section
Large (>1 m²)

Expand to show TLE details & history
Last TLE update: 12 hours ago

TLE from 12 hours ago
0 KUIPER-00519
1 68890U 26095AC  26171.41668980 -.00005868  00000-0 -24306-3 0  9999
2 68890  51.8885 227.0272 0001155  71.5756 222.6202 15.21505037  5665
Epoch: 2026-06-20T10:00Z
TLE epoch observation values (Epoch: 2026-06-20T10:00:01.998Z)
Latitude
-46.05039°
Longitude
114.3644°
Altitude
517.41 km
Speed
7.604 km/s
True Right ascension
11h 32m 01s
True Declination
-45° 52' 21"
Sunlit
Object was in daylight at epoch
Visualization orbit readout
Latitude
Unknown
Longitude
Unknown
Altitude
Unknown
Speed
Unknown
Apparent Right ascension
Unknown
Apparent Declination
Unknown
Sunlit
N/A
Visualization observer readout
Local Sidereal Time
08:42:09
Azimuth
Unknown
Elevation
Unknown
Doppler factor
Unknown
Orbital elements
Apogee altitude
502.556 km
Perigee altitude
500.967 km
Semi-major axis
6,879.899 km
Eccentricity
0.00012
Inclination
51.8885°
RAAN
227.0272°
Arg. of periapsis
71.5756°
True anomaly
222.61124°
Mean anomaly
222.6202°
Eccentric anomaly
222.61572°
Mean motion
3.80338 °/min
Orbital period
94.65 mins
BSTAR
-0.00024306
Loading maneuver chart data...
Computing Atmospheric mass density...
Loading historical data...
Loading historical data...
Loading historical data...
Loading historical data...
Loading historical data...
Loading historical data...
Loading historical data...

Documentation

Showing up to 5 results
|